Location: Buch
(50.1863°N, 11.0141°E)
Time: 12:43:39
(UTC+00:00)

Cosmos 2366 rocket - Pass Details

Date: 18 January 2020
Orbit: 956 x 996 km, 82.9° (Epoch: 27 February)

Event Time Altitude Azimuth Distance (km) Brightness Sun altitude
Rises 05:50:25 0° 348° (NNW) 3,715 6.7 -12.0°
Reaches altitude 10° 05:52:57 10° 346° (NNW) 2,767 6.1 -11.6°
Maximum altitude 05:59:14 66° 266° (W) 1,086 4.0 -10.6°
Drops below altitude 10° 06:05:30 10° 186° (S) 2,758 6.6 -9.7°
Sets 06:08:01 0° 183° (S) 3,702 7.3 -9.3°
